Weather in Beni

Democratic Republic of the Congo     0°29′31″N   29°27′36″E
temp.,
°C
wind,
m/s
gust,
m/s
humid.,
%
clouds,
%
prec.,
mm/h
press.,
hPa
HPBL,
m
4 july, mon
mon401:00+17ssw11884 0.0 101514
04:00+16s118634 0.0 101624
07:00+22sse135799 0.0 1016293
10:00+28ene1139100 0.0 10151801
13:00+31ene212916 0.0 10112637
16:00+26e1248100 0.0 101069
19:00+22w126498 0.0 101366
22:00+18s11785 0.0 101512
5 july, tue
tue501:00+18s118186 0.2 101421
04:00+17ssw119593 1.7 101535
07:00+18s1187100 2.3 101733
10:00+23nw116490 0.0 1016247
13:00+30nw21330 0.0 10112143
16:00+26nw235064 0.0 1011258
19:00+20sw11693 0.0 101415
22:00+18ssw11742 0.0 101513
6 july, wed
wed601:00+17ssw118026 0.0 101424
04:00+17s117819 0.0 101416
07:00+22se12525 0.0 1015252
10:00+31ne11315 0.0 10131995
13:00+32nne222519 0.0 10093277
16:00+25sw1247100 0.0 101049
19:00+23wsw125347 0.0 101235
22:00+19s11685 0.0 101418
7 july, thu
thu701:00+17s11715 0.0 101431
04:00+17s116939 0.0 101432
07:00+23se13507 0.0 1015242
10:00+32e133054 0.0 10122739
13:00+26ssw3747100 0.0 1011546
16:00+23wsw2556100 0.0 101199
19:00+22ssw1158100 0.0 101338
22:00+19ene016768 0.0 101511
8 july, fri
fri801:00+18sse117160 0.0 101413
04:00+18sse1171100 0.0 101522
07:00+20ese1262100 0.0 1016109
10:00+23e015396 0.0 1015161
13:00+27wsw0243100 0.0 1011339
16:00+23ssw1254100 0.0 101253
19:00+21sw116222 0.0 101314
22:00+19s116554 0.0 101417